Showing default

YAOGAN 16C, 39013

Orbit data source: Space-Track

YAOGAN 16C, 39013 is a payload satellite owned by PLA GAD (CN) in LEO that was launched on Sun, 25 Nov 2012 UTC via a CHANG ZHENG 4C launch vehicle from the Jiuquan Satellite Launch Center, China (JSC). Payload-class satellites include a variety of spacecraft equipped with specific instruments for various scientific and technological missions. These include communications satellites like Starlink; space stations such as the ISS; scientific satellites like the Hubble; Earth observation satellites from companies like Planet Labs, Umbra, and HawkEye 360; GPS; miniature CubeSats for education and research; and military/defense satellites.

Loading next visibility...
Identifier
39013, 2012-066C
Orbit
LEO
Country
Flag of CNCN / PRC
Related business
Manufacturer
CAST
Mission
Operational Defense Radar Imaging
Bus & Motor
Unknown
Mass
~500 kg wet, ~500 kg dry
Launch date (UTC)
2012-11-25 (14 years ago)
Launch vehicle
CHANG ZHENG 4C
Launch site
Jiuquan Satellite Launch Center, China (JSC)
Object type
Payload
Rocket body
Debris
Shape & HBR
Box + 2 Pan, 0.5 m
Radar Cross Section
0.446 m², Large (>1 m²)

Expand to show TLE details & history
Last TLE update: 1 day ago

TLE from 1 day ago
0 YAOGAN 16C
1 39013U 12066C   26172.56929988 -.00000149  00000-0 -54814-4 0  9997
2 39013  63.3554 278.2029 0436067  26.4766 335.7837 13.45504590666720
Epoch: 2026-06-21T13:39Z
TLE epoch observation values (Epoch: 2026-06-21T13:39:47.509Z)
Latitude
-0.00004°
Longitude
163.48724°
Altitude
796.159 km
Speed
7.601 km/s
True Right ascension
18h 32m 48s
True Declination
0° 00' 00"
Sunlit
Object was in full shadow at epoch
Visualization orbit readout
Latitude
Unknown
Longitude
Unknown
Altitude
Unknown
Speed
Unknown
Apparent Right ascension
Unknown
Apparent Declination
Unknown
Sunlit
N/A
Visualization observer readout
Local Sidereal Time
00:39:54
Azimuth
Unknown
Elevation
Unknown
Doppler factor
Unknown
Orbital elements
Apogee altitude
1,413.235 km
Perigee altitude
762.116 km
Semi-major axis
7,465.813 km
Eccentricity
0.04361
Inclination
63.3554°
RAAN
278.2029°
Arg. of periapsis
26.4766°
True anomaly
333.62756°
Mean anomaly
335.7837°
Eccentric anomaly
334.71661°
Mean motion
3.36455 °/min
Orbital period
107 mins
BSTAR
-0.000054814
Loading maneuver chart data...
Computing Atmospheric mass density...
Loading historical data...
Loading historical data...
Loading historical data...
Loading historical data...
Loading historical data...
Loading historical data...
Loading historical data...

Documentation

Showing up to 5 results
|